Observer details:
104 San Marcello Pistoiese.  Observers P. Bacci, M. Maestripieri.  Measurer P.
    Bacci.  0.60-m f/4.0 reflector + CCD.
807 Cerro Tololo Observatory, La Serena.  Observers T. Linder, R. Holmes.
    0.61-m f/6.8 Ritchey-Chretien + CCD.
858 Tebbutt Observatory, Edgewood.  Observer F. B. Zoltowski.  0.16-m f/7
    Refractor + CCD, 0.51-m f/8.1 Schmidt-Cassegrain + CCD.
E23 Arcadia.  Observer A. Hidas.  0.35-m f/1.9 reflector + CCD.
F52 Pan-STARRS 2, Haleakala.  Observers J. Herman, T. Lowe, P. Minguez, A.
    Schultz, I. Smith.  Measurers K. Chambers, T. de Boer, J. Fairlamb, H.
    Gao, M. Huber, C.-C. Lin, E. Magnier, Y. Ramanjooloo, R. Wainscoat, R.
    Weryk.  1.8-m Ritchey-Chretien + CCD.
H21 Astronomical Research Observatory, Westfield.  Observer R. Holmes.
    Measurers T. Linder, R. Holmes, L. Horn.  0.81-m f/4.0 astrograph + CCD.
I52 Steward Observatory, Mt. Lemmon Station.  Observer J. B. Fazekas.
    Measurers T. Beuden, V. F. Carvajal, D. Fay, J. B. Fazekas, D. C. Fuls, A.
    R. Gibbs, A. D. Grauer, H. Groeller, J. K. Hogan, R. A. Kowalski, S. M.
    Larson, G. J. Leonard, D. Rankin, R. L. Seaman, F. C. Shelly, K. W.
    Wierzchos.  1.0-m prime focus + CCD.
I93 St Pardon de Conques.  Observer F. Losse.  0.40-m f/3.7 reflector + CCD.
J95 Great Shefford.  Observer P. Birtwhistle.  0.41-m f/6.3 Schmidt-Cassegrain
    + CCD.
L01 Visnjan Observatory, Tican.  Observer K. Korlevic.  1.0-m f/2.9 reflector
    + CCD.
L29 Drebach-South Observatory, Windhoek.  Observer G. Lehmann.  0.4-m f/3.6
    reflector + CCD.
L68 PESCOPE, Port Elizabeth.  Observer S. L. Ferreira.  0.36-m f/3.6 0.355
    Schmidt- Cssegrain + CCD.
L87 Moonbase South Observatory, Hakos.  Observer G. Duszanowicz.  0.28-m f/1.9
    reflector + CMO.
M28 Lesedi Telescope-SAAO Observatory, Sutherland.  Observers N. Erasmus, S.
    Potter, C. van Gend, S. Chandra, H. Worters.  Measurers T. Ngwane, N.
    Erasmus.  1.0-m f/8 Reflector + CCD.
M49 IAS Remote Observatory, Hakos.  Observers D. Husar, M. Junius.  Measurer
    D. Husar.  0.25-m f/4.5 reflector + CMO.
O46 Daocheng Glacier Observatory.  Observer Z. Wang.  0.25-m f/8 reflector +
    CMO.
Q06 Tarui Observatory, Tarui.  Observer H. Watanabe.  0.35-m f/1.9 Schmidt-
    Cassegrain + CMO.
U52 Shasta Valley Observatory, Grenada.  Observers J. E. Rogers, B. Haeusler.
    Measurers J. E. Rogers, D. Parrott.  0.30-m f/5.2 Helin Telescope + CCD.
V27 North Mesa Observatory, Los Alamos.  Observer B. K. Kendrick.  0.25-m f/6
    reflector + CCD.
W42 Mind's Eye Observatory, Vero Beach.  Observer J. T. Grage.  0.30-m f/3.3
    SCT + CMO.
W68 ATLAS Chile, Rio Hurtado.  Observers L. Denneau, R. Siverd, J. Tonry, H.
    Weiland.  Measurers L. Denneau, N. Erasmus, A. Fitzsimmons, J. Robinson,
    R. Siverd, J. Tonry, H. Weiland.  0.5-m Reflector + CCD.
Y05 SONEAR Wykrota-CEAMIG, Serra da Piedade.  Observer C. Jacques.  0.45-m
    f/2.9 reflector + CMO.

Orbital elements:
2024 HJ                                             PHA, Earth MOID = 0.0049 AU
Epoch 2024 Mar. 31.0 TT = JDT 2460400.5                 Bell                    
M 307.54034              (2000.0)            P               Q                  
n   0.72400550     Peri.  135.74372     +0.97090409     +0.18414380             
a   1.2283104      Node   214.52343     -0.21047900     +0.96110762             
e   0.8181981      Incl.   15.67146     +0.11420962     +0.20582325             
P   1.36           H   20.94          G   0.15           U   8                  
Residuals in seconds of arc
240416 F52  0.1+  0.0     240417 Y05  0.0   0.2+    240417 L87  0.2+  0.2+
240416 F52  0.2+  0.0     240417 W42  1.3-  0.5+    240417 L29  0.1-  0.0
240416 F52  0.2+  0.0     240417 W42  0.8-  0.9+    240417 L87  0.1+  0.0
240416 F52  0.2+  0.0     240417 W42  0.7-  0.5+    240417 L87  0.1+  0.0
240416 F52  0.1+  0.0     240417 I52  0.1+  0.1-    240417 I93  0.2-  0.4-
240416 F52  0.1+  0.0     240417 I52  0.2+  0.1-    240417 I93  0.0   0.2+
240416 O46  0.0   0.4-    240417 I52  0.1+  0.1-    240417 I93  0.2+  0.3-
240416 O46  0.1-  0.7-    240417 I52  0.1+  0.2-    240418 H21  0.1-  0.0
240416 O46  0.4+  0.6-    240417 807  0.2-  0.0     240418 H21  0.1-  0.1-
240416 M28  0.0   0.1+    240417 807  0.1+  0.2+    240418 H21  0.2-  0.1-
240416 M28  0.2+  0.0     240417 807  0.0   0.0     240418 H21  0.0   0.1-
240416 M28  0.2+  0.0     240417 807  0.0   0.0     240418 H21  0.0   0.2-
240416 J95  0.3-  0.2+    240417 V27  1.0-  0.5-    240418 W68  0.1+  0.0
240416 104  0.2+  0.2-    240417 V27  1.1-  0.5+    240418 W68  0.0   0.1+
240416 J95  0.3-  0.0     240417 V27  0.8+  0.6-    240418 W68  0.4+  0.5-
240416 J95  0.0   0.1+    240417 V27  0.2-  0.4-    240418 858  0.1-  0.1-
240416 104  0.3+  0.3-    240417 858  0.3+  0.5-    240418 858  0.3-  0.0
240416 M49  0.0   0.0     240417 858  0.4-  0.2+    240418 858  0.1-  0.0
240416 M49  0.3+  0.0     240417 858  0.3+  0.0     240418 U52  0.3+  0.2-
240416 M49  0.0   0.1+    240417 L29  0.4-  0.2+    240418 U52  0.0   0.6-
240416 104  0.1-  0.0     240417 L29  0.4-  0.2-    240418 U52  0.7+  0.3+
240416 L01  0.5+  0.8-    240417 L68  0.3+  0.0     240418 E23  0.3-  0.2+
240416 L01  0.1+  0.1-    240417 L29  0.3-  0.5-    240418 E23  0.0   0.3+
240416 L01  0.6-  0.7+    240417 L68  0.1+  0.1-    240418 E23  0.1+  0.5+
240416 L01  0.3+  0.5+    240417 L68  0.3+  0.3+    240418 Q06  0.2-  0.5-
240417 Y05  0.1-  0.1+    240417 L29  0.1-  0.0     240418 Q06  0.3+  0.7+
240417 Y05  0.0   0.1+    240417 L29  0.1-  0.1-    240418 Q06  0.7-  0.9+

Ephemeris:
2024 HJ                  a,e,i = 1.23, 0.82, 16                  q = 0.2233
Date    TT    R. A. (2000) Decl.     Delta      r    Elong.  Phase     V
2024 03 19    14 47 16.0 -27 20 02   0.6610  1.5083   130.0    30.4    22.2
...
2024 04 03    14 34 31.8 -27 37 37   0.3961  1.3479   146.5    24.2    20.7
...
2024 04 11    14 09 52.9 -26 36 32   0.2654  1.2522   158.0    17.4    19.5
...
2024 04 17    13 27 18.3 -23 38 24   0.1755  1.1751   166.4    11.6    18.2
2024 04 18    13 16 05.5 -22 40 12   0.1617  1.1618   166.3    11.8    18.0
2024 04 19    13 03 03.4 -21 27 10   0.1484  1.1483   165.1    13.0    17.9
...
2024 04 25    10 46 01.0 -03 54 32   0.08979 1.0644   128.7    47.6    17.6
...
2024 05 03    06 42 35.1 +26 15 19   0.1303  0.9432    56.9   116.5    21.0
...
2024 05 18    04 33 35.4 +30 24 47   0.3512  0.6816    16.3   155.4    27.4

M. P. C. Staff               (C) Copyright 2024 MPC           M.P.E.C. 2024-H29





More information about the Iaude mailing list